Location: Janeiro
(34.9957°N, 76.7652°W)
Time: 11:12:13
(UTC+00:00)

YAOGAN 6 - Pass Details

Date: 14 December 2019
Orbit: 466 x 504 km, 97.0° (Epoch: 22 January)

Event Time Altitude Azimuth Distance (km) Brightness Sun altitude
Rises 22:17:39 0° 124° (SE) 2,518 5.9 -4.7°
Reaches altitude 10° 22:20:46 10° 92° (E) 1,655 4.7 -5.3°
Maximum altitude 22:22:12 12° 69° (ENE) 1,535 4.4 -5.6°
Drops below altitude 10° 22:23:39 10° 45° (NE) 1,669 4.7 -5.8°
Sets 22:26:49 0° 14° (NNE) 2,566 5.9 -6.4°
